Flag for Peru Weather past 2 weeks in Arequipa, Arequipa, Peru

Now
63 °F

Passing clouds.


Feels Like: 63 °F
Forecast: 50 / 69 °F
Wind: 10 mph from West

Location: Arequipa Airport

Current Time: Sep 22, 2014 at 11:27:21 AM

Latest Report: Sep 22, 2014 at 11:00 AM


Visibility: N/A

Pressure: 30.33 "Hg

Humidity: 19%

Dew point: 19 °F

Location of ArequipaLocation

Historic Weather in Arequipa — Graph

°F

Arequipa temperature yesterday

Maximum temperature yesterday: 70 °F (at 12:00 PM)
Minimum temperature yesterday: 46 °F (at 5:00 AM)
Average temperature yesterday: 59 °F

Past Weeks' High & Low Weather Summary

 TemperatureHumidityPressure
High73 °F (Sep 7, 11:00 AM)100% (Sep 20, 3:00 AM)30.39 "Hg (Sep 20, 3:00 AM)
Low46 °F (Sep 12, 6:00 AM)11% (Sep 21, 11:00 AM)30.15 "Hg (Sep 11, 4:00 AM)
Average60 °F29%30.30 "Hg
* Reported Sep 7 10:00 AM — Sep 22 10:00 AM, Arequipa, Weather by CustomWeather, © 2014

Note: Actual official high and low records may vary slightly from our data, if they occured in-between our weather recording intervals... More about our weather records

Advertising

Arequipa weather history for previous 24 hours

 ConditionsComfort  
Time TempWeatherWind HumidityBarometerVisibility
10:00 AM
Sep 22
63 °FPassing clouds.10 mph17%30.33 "HgN/A
9:00 AM61 °FPassing clouds.8 mph20%30.36 "HgN/A
8:00 AM61 °FSunny.2 mph20%30.33 "Hg10 mi
7:00 AM59 °FSunny.No wind18%30.33 "Hg10 mi
6:00 AM52 °FSunny.No wind26%30.33 "Hg10 mi
5:00 AM52 °FClear.3 mph47%N/A10 mi
4:00 AM52 °FClear.No wind22%30.30 "Hg10 mi
3:00 AM52 °FClear.3 mph24%30.30 "Hg10 mi
2:00 AM55 °FClear.5 mph24%30.30 "Hg10 mi
1:00 AM55 °FPassing clouds.No wind23%30.33 "HgN/A
12:00 AM55 °FClear.No wind19%30.36 "Hg10 mi
11:00 PM
Sep 21
57 °FClear.No wind18%30.36 "Hg10 mi
10:00 PM55 °FPassing clouds.5 mph21%30.36 "HgN/A
9:00 PM55 °FClear.7 mph23%30.36 "Hg10 mi
8:00 PM57 °FClear.5 mph21%30.36 "Hg10 mi
7:00 PM59 °FClear.3 mph23%30.36 "Hg10 mi
6:00 PM61 °FClear.8 mph20%30.33 "Hg10 mi
5:00 PM64 °FSunny.12 mph16%30.30 "Hg10 mi
4:00 PM68 °FPassing clouds.12 mph13%30.30 "HgN/A
3:00 PM70 °FPassing clouds.10 mph12%30.27 "HgN/A
2:00 PM70 °FPassing clouds.13 mph12%30.30 "HgN/A
1:00 PM70 °FPassing clouds.12 mph12%30.30 "HgN/A
12:00 PM70 °FPassing clouds.10 mph11%30.33 "HgN/A
11:00 AM68 °FPassing clouds.8 mph11%30.33 "HgN/A
Weather by CustomWeather, © 2014

See weather overviewHow to use our weather pages